This demonstration page uses our WeatherBlox Daily Observations layout. Learn more.

Left ArrowRight Arrow

36.17497, -115.13722

Hourly Observations for November 9, 2020

Temp ( °F °C ) Dew Point ( °F °C ) Humidity (%) Winds ( mph kmh ) Pressure ( in mb ) Visibility ( mi km ) Precip ( " mm )
12:53 am 00:53 Mostly Cloudy 46 7.8 28 -2.2 50 50 WNW 10 17 29.82 1010 10 16 0.00 0.00
1:53 am 01:53 Mostly Cloudy 45 7.2 28 -2.2 52 52 NNW 10 17 29.84 1011 10 16 0.00 0.00
2:53 am 02:53 Mostly Cloudy 45 7.2 26 -3.3 48 48 NNW 13 20 29.85 1011 10 16 0.00 0.00
3:53 am 03:53 Mostly Cloudy 45 7.2 22 -5.6 40 40 NW 16 26 29.88 1012 10 16 0.00 0.00
4:53 am 04:53 Clear 43 6.1 23 -5 45 45 NW 16 26 29.91 1013 10 16 0.00 0.00
5:53 am 05:53 Clear 43 6.1 21 -6.1 42 42 NW 17 28 29.95 1014 10 16 0.00 0.00
6:53 am 06:53 Sunny 43 6.1 19 -7.2 38 38 NNW 15 24 29.99 1016 10 16 0.00 0.00
7:53 am 07:53 Sunny 46 7.8 19 -7.2 34 34 NW 16 26 30.03 1017 10 16 0.00 0.00
8:53 am 08:53 Sunny 49 9.4 18 -7.8 29 29 NW 13 20 30.05 1018 10 16 0.00 0.00
9:53 am 09:53 Sunny 51 10.6 17 -8.3 26 26 NNW 14 22 30.06 1018 10 16 0.00 0.00
10:53 am 10:53 Sunny 54 12.2 18 -7.8 24 24 N 15 24 30.07 1018 10 16 0.00 0.00
11:53 am 11:53 Sunny 55 12.8 17 -8.3 22 22 NW 13 20 30.06 1018 10 16 0.00 0.00
12:53 pm 12:53 Sunny 55 12.8 18 -7.8 23 23 Calm 30.06 1018 10 16 0.00 0.00
1:53 pm 13:53 Sunny 56 13.3 19 -7.2 24 24 Calm 30.06 1018 10 16 0.00 0.00
2:53 pm 14:53 Sunny 57 13.9 18 -7.8 22 22 VRB 3 6 30.08 1019 10 16 0.00 0.00
3:53 pm 15:53 Sunny 56 13.3 18 -7.8 22 22 Calm 30.09 1019 10 16 0.00 0.00
4:53 pm 16:53 Clear 54 12.2 17 -8.3 23 23 Calm 30.11 1020 10 16 0.00 0.00
5:53 pm 17:53 Clear 53 11.7 17 -8.3 24 24 N 6 9 30.13 1020 10 16 0.00 0.00
6:53 pm 18:53 Clear 52 11.1 16 -8.9 24 24 N 5 7 30.14 1021 10 16 0.00 0.00
7:53 pm 19:53 Clear 49 9.4 17 -8.3 28 28 NNW 8 13 30.16 1021 10 16 0.00 0.00
8:53 pm 20:53 Clear 48 8.9 16 -8.9 28 28 NNW 8 13 30.17 1022 10 16 0.00 0.00
9:53 pm 21:53 Clear 48 8.9 16 -8.9 28 28 NNW 12 19 30.17 1022 10 16 0.00 0.00
10:53 pm 22:53 Clear 47 8.3 16 -8.9 29 29 NW 10 17 30.18 1022 10 16 0.00 0.00
11:53 pm 23:53 Clear 47 8.3 15 -9.4 28 28 NW 9 15 30.18 1022 10 16 0.00 0.00

Powered by AerisWeather